Belmar-Farmingdale, NJ

6:25 AM EDT on April 23, 2018 (GMT -0400)
Allaire

Weather History for KBLM - February, 2012

Change the Weather History Date:

Thursday, February 9, 2012

  Actual Average Record
Temperature  
Mean Temperature 35 °F -  
Max Temperature 42 °F 39 °F 51 °F (2005)
Min Temperature 28 °F 25 °F 14 °F (2011)
Degree Days  
Heating Degree Days 30    
Moisture  
Dew Point 24 °F    
Average Humidity 69    
Maximum Humidity 100    
Minimum Humidity 39    
Precipitation  
Precipitation 0.01 in - - ()
Sea Level Pressure  
Sea Level Pressure 30.11 in    
Wind  
Wind Speed 9 mph (WNW)    
Max Wind Speed 20 mph    
Max Gust Speed 23 mph    
Visibility 9 miles    
Events      
Averages and records for this station are not official NWS values.
T = Trace of Precipitation, MM = Missing Value Source: NWS Daily Summary

Daily Weather History Graph

Daily Weather History Graph

Search for Another Location

Airport or City:

Astronomy

Feb. 09, 2012 Rise Set
Actual Time 6:57 AM EST 5:24 PM EST
Civil Twilight 6:29 AM EST 5:52 PM EST
Nautical Twilight 5:57 AM EST 6:24 PM EST
Astronomical Twilight 5:25 AM EST 6:56 PM EST
Moon 7:50 PM EST (2/9) 7:32 AM EST (2/9)
Length of Visible Light 11h 23m
Length of Day
10h 26m
Waning Gibbous, 96% of the Moon is Illuminated
Feb 9
Waning Gibbous
Feb 14
Last Quarter
Feb 21
New
Feb 29
First Quarter
Mar 8
Full

Hourly Weather History & Observations

Time (EST) Temp. Windchill Dew Point Humidity Pressure Visibility Wind Dir Wind Speed Gust Speed Precip Events Conditions
12:15 AM 30.2 °F 21.9 °F 30.2 °F 100% 30.08 in 3.0 mi NW 9.2 mph - N/A   Overcast
12:55 AM 30.2 °F 21.3 °F 28.4 °F 93% 30.08 in 5.0 mi NW 10.4 mph - N/A   Overcast
1:15 AM 30.2 °F 22.6 °F 28.4 °F 93% 30.08 in 5.0 mi NW 8.1 mph - N/A   Overcast
1:35 AM 30.2 °F 22.6 °F 28.4 °F 93% 30.08 in 7.0 mi WNW 8.1 mph - N/A   Overcast
1:55 AM 30.2 °F 21.9 °F 28.4 °F 93% 30.08 in 8.0 mi NW 9.2 mph - N/A   Overcast
2:15 AM 30.2 °F 21.3 °F 28.4 °F 93% 30.08 in 7.0 mi NW 10.4 mph - N/A   Overcast
2:35 AM 30.2 °F 22.6 °F 28.4 °F 93% 30.07 in 10.0 mi NW 8.1 mph - N/A   Overcast
2:55 AM 30.2 °F 21.9 °F 28.4 °F 93% 30.07 in 10.0 mi NW 9.2 mph - N/A   Overcast
3:15 AM 30.2 °F 23.4 °F 28.4 °F 93% 30.07 in 10.0 mi WNW 6.9 mph - N/A   Overcast
3:35 AM 30.2 °F 24.3 °F 28.4 °F 93% 30.07 in 10.0 mi WNW 5.8 mph - N/A   Overcast
3:55 AM 30.2 °F 23.4 °F 28.4 °F 93% 30.06 in 10.0 mi WNW 6.9 mph - N/A   Overcast
4:15 AM 30.2 °F 22.6 °F 28.4 °F 93% 30.06 in 10.0 mi WNW 8.1 mph - N/A   Overcast
4:35 AM 30.2 °F 22.6 °F 28.4 °F 93% 30.06 in 10.0 mi WNW 8.1 mph - N/A   Overcast
4:55 AM 30.2 °F 23.4 °F 28.4 °F 93% 30.07 in 10.0 mi WNW 6.9 mph - N/A   Mostly Cloudy
5:15 AM 30.2 °F 23.4 °F 26.6 °F 86% 30.08 in 10.0 mi WNW 6.9 mph - N/A   Partly Cloudy
5:35 AM 28.4 °F 21.2 °F 26.6 °F 93% 30.08 in 9.0 mi WNW 6.9 mph - N/A   Partly Cloudy
5:55 AM 28.4 °F 23.3 °F 26.6 °F 93% 30.09 in 8.0 mi WNW 4.6 mph - N/A   Scattered Clouds
6:15 AM 28.4 °F 24.6 °F 26.6 °F 93% 30.09 in 6.0 mi WNW 3.5 mph - N/A   Clear
6:35 AM 28.4 °F 23.3 °F 26.6 °F 93% 30.10 in 7.0 mi WNW 4.6 mph - N/A   Clear
6:55 AM 28.4 °F 21.2 °F 26.6 °F 93% 30.10 in 7.0 mi WNW 6.9 mph - N/A   Clear
7:15 AM 28.4 °F 19.7 °F 26.6 °F 93% 30.11 in 8.0 mi WNW 9.2 mph - N/A   Clear
7:35 AM 28.4 °F 20.4 °F 26.6 °F 93% 30.12 in 8.0 mi WNW 8.1 mph - N/A   Clear
7:55 AM 30.2 °F 21.3 °F 26.6 °F 86% 30.13 in 8.0 mi West 10.4 mph - N/A   Clear
8:15 AM 30.2 °F 23.4 °F 26.6 °F 86% 30.14 in 8.0 mi West 6.9 mph - N/A   Clear
8:35 AM 30.2 °F 20.8 °F 28.4 °F 93% 30.14 in 10.0 mi WNW 11.5 mph - N/A   Clear
8:55 AM 32.0 °F 23.0 °F 28.4 °F 87% 30.15 in 10.0 mi WNW 11.5 mph - N/A   Clear
9:15 AM 32.0 °F 24.2 °F 26.6 °F 80% 30.14 in 10.0 mi WNW 9.2 mph - N/A   Clear
9:35 AM 33.8 °F 24.8 °F 26.6 °F 75% 30.14 in 10.0 mi NW 12.7 mph - N/A   Clear
9:55 AM 33.8 °F 24.8 °F 26.6 °F 75% 30.14 in 10.0 mi NW 12.7 mph 17.3 mph N/A   Clear
10:15 AM 33.8 °F 24.8 °F 24.8 °F 70% 30.15 in 10.0 mi WNW 12.7 mph 17.3 mph N/A   Clear
10:35 AM 35.6 °F 26.6 °F 24.8 °F 65% 30.15 in 10.0 mi NW 13.8 mph 20.7 mph N/A   Clear
10:55 AM 35.6 °F 26.6 °F 24.8 °F 65% 30.15 in 10.0 mi NW 13.8 mph - N/A   Clear
11:15 AM 35.6 °F 24.8 °F 23.0 °F 60% 30.15 in 10.0 mi NW 19.6 mph - N/A   Clear
11:35 AM 37.4 °F 27.8 °F 23.0 °F 56% 30.15 in 10.0 mi WNW 17.3 mph 23.0 mph N/A   Clear
11:55 AM 37.4 °F 28.5 °F 23.0 °F 56% 30.14 in 10.0 mi WNW 15.0 mph 21.9 mph N/A   Clear
12:15 PM 39.2 °F 30.8 °F 24.8 °F 56% 30.13 in 10.0 mi West 15.0 mph 21.9 mph N/A   Clear
12:35 PM 39.2 °F 31.6 °F 23.0 °F 52% 30.12 in 10.0 mi WNW 12.7 mph 18.4 mph N/A   Clear
12:55 PM 39.2 °F 32.5 °F 23.0 °F 52% 30.11 in 10.0 mi WNW 10.4 mph - N/A   Clear
1:15 PM 39.2 °F 32.0 °F 21.2 °F 49% 30.11 in 10.0 mi West 11.5 mph - N/A   Clear
1:35 PM 41.0 °F 34.7 °F 21.2 °F 45% 30.10 in 10.0 mi NW 10.4 mph - N/A   Clear
1:55 PM 41.0 °F 33.9 °F 21.2 °F 45% 30.10 in 10.0 mi West 12.7 mph - N/A   Clear
2:15 PM 42.8 °F 37.5 °F 21.2 °F 42% 30.10 in 10.0 mi WNW 9.2 mph - N/A   Clear
2:35 PM 42.8 °F 36.6 °F 21.2 °F 42% 30.10 in 10.0 mi WNW 11.5 mph - N/A   Clear
2:55 PM 42.8 °F 35.8 °F 23.0 °F 46% 30.10 in 10.0 mi West 13.8 mph 17.3 mph N/A   Clear
3:15 PM 42.8 °F 36.2 °F 21.2 °F 42% 30.10 in 10.0 mi West 12.7 mph 18.4 mph N/A   Clear
3:35 PM 42.8 °F 37.0 °F 21.2 °F 42% 30.11 in 10.0 mi WNW 10.4 mph - N/A   Clear
3:55 PM 42.8 °F 36.6 °F 21.2 °F 42% 30.11 in 10.0 mi West 11.5 mph - N/A   Clear
4:15 PM 42.8 °F 36.6 °F 19.4 °F 39% 30.11 in 10.0 mi West 11.5 mph - N/A   Clear
4:35 PM 42.8 °F 36.6 °F 21.2 °F 42% 30.12 in 10.0 mi West 11.5 mph - N/A   Clear
4:55 PM 41.0 °F 35.2 °F 21.2 °F 45% 30.13 in 10.0 mi West 9.2 mph - N/A   Clear
5:15 PM 39.2 °F 34.2 °F 19.4 °F 45% 30.12 in 10.0 mi West 6.9 mph - N/A   Clear
5:35 PM 39.2 °F 34.2 °F 19.4 °F 45% 30.12 in 10.0 mi West 6.9 mph - N/A   Clear
5:55 PM 37.4 °F 32.1 °F 19.4 °F 48% 30.13 in 10.0 mi WSW 6.9 mph - N/A   Clear
6:15 PM 37.4 °F 30.8 °F 19.4 °F 48% 30.14 in 10.0 mi West 9.2 mph - N/A   Clear
6:35 PM 37.4 °F 31.4 °F 19.4 °F 48% 30.14 in 10.0 mi West 8.1 mph - N/A   Clear
6:55 PM 35.6 °F 29.9 °F 19.4 °F 52% 30.15 in 10.0 mi WSW 6.9 mph - N/A   Clear
7:15 PM 35.6 °F 28.6 °F 21.2 °F 56% 30.15 in 10.0 mi West 9.2 mph - N/A   Clear
7:35 PM 35.6 °F 29.9 °F 21.2 °F 56% 30.15 in 10.0 mi West 6.9 mph - N/A   Clear
7:55 PM 35.6 °F 29.2 °F 21.2 °F 56% 30.15 in 10.0 mi West 8.1 mph - N/A   Clear
8:15 PM 35.6 °F 29.9 °F 19.4 °F 52% 30.16 in 10.0 mi West 6.9 mph - N/A   Clear
8:35 PM 33.8 °F 29.6 °F 19.4 °F 56% 30.15 in 10.0 mi West 4.6 mph - N/A   Clear
8:55 PM 33.8 °F 28.6 °F 21.2 °F 60% 30.16 in 10.0 mi West 5.8 mph - N/A   Clear
9:15 PM 33.8 °F 29.6 °F 21.2 °F 60% 30.15 in 10.0 mi West 4.6 mph - N/A   Clear
9:35 PM 33.8 °F 29.6 °F 19.4 °F 56% 30.15 in 10.0 mi WSW 4.6 mph - N/A   Clear
9:55 PM 32.0 °F 27.5 °F 19.4 °F 60% 30.16 in 10.0 mi WSW 4.6 mph - N/A   Clear
10:15 PM 32.0 °F 27.5 °F 21.2 °F 64% 30.15 in 10.0 mi WSW 4.6 mph - N/A   Clear
10:35 PM 32.0 °F 25.6 °F 19.4 °F 60% 30.15 in 10.0 mi WSW 6.9 mph - N/A   Clear
10:55 PM 30.2 °F 25.4 °F 19.4 °F 64% 30.16 in 10.0 mi West 4.6 mph - N/A   Clear
11:15 PM 30.2 °F 24.3 °F 19.4 °F 64% 30.16 in 10.0 mi West 5.8 mph - N/A   Clear
11:35 PM 30.2 °F 24.3 °F 19.4 °F 64% 30.16 in 10.0 mi West 5.8 mph - N/A   Clear
11:55 PM 28.4 °F 23.3 °F 21.2 °F 74% 30.15 in 10.0 mi West 4.6 mph - N/A   Clear